Regional Weather Roundup
Issued by NWS Burlington, VT

Home | Current Version | Previous Version | Text Only | Print | Product List | Glossary On
Versions: 1 2 3 4 5 6 7 8 9 10 11 12 13 14 15 16 17 18 19 20 21 22 23 24 25 26 27 28 29 30 31 32 33 34 35 36 37 38 39 40 41 42 43 44 45 46 47 48 49 50
000
ASUS41 KBTV 211030
RWRBTV
VERMONT REGIONAL WEATHER ROUNDUP
NATIONAL WEATHER SERVICE BURLINGTON VT
600 AM EDT SAT APR 21 2018

NOTE: "FAIR" INDICATES FEW OR NO CLOUDS BELOW 12,000 FEET WITH NO
SIGNIFICANT WEATHER AND/OR OBSTRUCTIONS TO VISIBILITY.

* THESE REPORTS ARE NOT UNDER NWS QUALITY CONTROL AND/OR DO NOT
  REPORT WEATHER SUCH AS PRECIPITATION AND FOG.

VTZ001>019-211100-
_____VERMONT_____


CITY           SKY/WX    TMP DP  RH WIND       PRES   REMARKS
BURLINGTON     FAIR      31  27  85 CALM      30.31R
MONTPELIER     FAIR      33  24  69 W6        30.29S WCI  28
MORRISVILLE    FAIR      28  24  85 CALM      30.28R
ST. JOHNSBURY*   N/A     29  28  96 MISG      30.25R
LYNDONVILLE*   CLOUDY    32  23  70 CALM      30.26R
MIDDLEBURY*    FAIR      29  26  90 CALM      30.31R
RUTLAND*       FAIR      27  25  92 E3        30.30R
SPRINGFIELD    FAIR      28  25  88 S5        30.30R WCI  23
HIGHGATE*      FAIR      33  25  72 CALM      30.31R
NEWPORT*       CLOUDY    33  23  67 W3        30.26R
BENNINGTON     FAIR      26  22  84 CALM      30.32S
ISLAND POND*     N/A     30 N/A N/A W2          N/A
GALLUP MILLS*    N/A     27 N/A N/A MISG        N/A
UNION VILLAGE*   N/A     28 N/A N/A MISG        N/A
MT. MANSFIELD*   N/A     21 N/A N/A CALM        N/A

_____LAKE CHAMPLAIN_____


CITY           SKY/WX    TMP DP  RH WIND       PRES   REMARKS
BURTON ISLAND*   N/A     37  32  81 N7          N/A
COLCHESTER RF*   N/A     37  27  65 W13         N/A  WCI  29

$$

NYZ007-026>031-035-052-083-087-211100-
_____NORTHERN NEW YORK_____


CITY           SKY/WX    TMP DP  RH WIND       PRES   REMARKS
PLATTSBURGH    FAIR      36  22  56 VRB6      30.31R WCI  31
SARANAC LAKE   FAIR      18  16  92 CALM      30.28R
MASSENA        FAIR      29  23  78 W8        30.36R WCI  21
OGDENSBURG*    FAIR      29  25  86 CALM      30.37S
POTSDAM*       FAIR      28  25  86 S3        30.36R
STARK FALLS*     N/A     27 N/A N/A W3          N/A
WATERTOWN      FAIR      22  21  96 CALM      30.39S
FT DRUM        FAIR      30  23  74 W6        30.36R WCI  24
ALBANY         FAIR      34  24  67 NW7       30.36R WCI  28
GLENS FALLS    FAIR      25  23  92 CALM      30.34R

$$
NHZ002-005-011-211100-
_____NEW HAMPSHIRE_____


CITY           SKY/WX    TMP DP  RH WIND       PRES   REMARKS
LEBANON        FAIR      29  24  82 S3        30.27R
KEENE          FAIR      26  25  96 CALM      30.31R
MT WASHINGTON  BLWGSNOW  12  12 100 NW52G68     N/A  VSB 1/16WCI -14
PLYMOUTH       FAIR      29  28  96 CALM      30.26R
WHITEFIELD     CLOUDY    30  27  88 CALM      30.24R

$$

_____REGIONAL QUEBEC LOCATIONS_____


CITY           SKY/WX    TMP DP  RH WIND       PRES   REMARKS
MONTREAL       PTCLDY    32  23  69 NW7       30.31R WCI  26
QUEBEC CITY    PTCLDY    34  23  64 NW3       30.24R
SHERBROOKE     CLOUDY   N/A N/A N/A NW6         N/A

_____REGIONAL ONTARIO LOCATIONS_____


CITY           SKY/WX    TMP DP  RH WIND       PRES   REMARKS
OTTAWA         CLEAR     28  19  69 NW7       30.35S WCI  21

______KEY______
VSB  - VISIBILITY IN MILES
WCI  - WIND CHILL INDEX
HX   - HEAT INDEX
$$
NNNN




USA.gov is the U.S. government's official web portal to all federal, state and local government web resources and services.